Location: Newark
(13.6797°N, 8.5297°E)
Time: 16:54:26
(UTC+00:00)

A-11 Canister half - Pass Details

Date: 21 January 2020
Orbit: 1517 x 1683 km, 47.2° (Epoch: 21 February)

Event Time Altitude Azimuth Distance (km) Brightness Sun altitude
Rises 08:38:57 0° 311° (NW) 4,694 11.0 34.8°
Reaches altitude 10° 08:42:01 10° 308° (NW) 3,728 10.6 35.4°
Maximum altitude 08:51:15 60° 231° (SW) 1,773 9.8 37.1°
Drops below altitude 10° 09:00:52 10° 153° (SSE) 3,855 12.1 38.9°
Sets 09:04:06 0° 149° (SSE) 4,862 12.4 39.5°
